Location: Il Ritiro
(43.4167°N, 13.1333°E)
Time: 08:05:28
(UTC+00:00)

Cosmos 2184 Rocket - Pass Details

Date: 05 July 2020
Orbit: 960 x 1001 km, 82.9° (Epoch: 05 August)

Event Time Altitude Azimuth Distance (km) Brightness Sun altitude
Exits shadow 20:42:26 23° 146° (SSE) 1,952 4.9 -15.5°
Maximum altitude 20:45:54 43° 89° (E) 1,350 4.5 -15.9°
Drops below altitude 10° 20:51:46 10° 21° (NNE) 2,751 6.8 -16.5°
Sets 20:54:26 0° 15° (NNE) 3,710 7.7 -16.7°
